When you browse on this site, cookies collect data to enhance your experience and personalize the content and advertising you see.
Visit our Privacy Policy to learn more. By continuing to use the site, you agree to this use of cookies and data.
  • In Lithuania
  • List of Countries
  • For 7 days
  • Water Temperature
  • Weather Map
  • Weather Widgets
  • user-avatar
    Login

    Hourly Weather Córdoba

    Today, 20 January, Monday

    Time Temperature Precipitation Wind Pressure Humidity
    00:00 +28°C° 0.4 mm 1 mps 720 mmHg 72%
    01:00 +27°C° 0.4 mm 1 mps 720 mmHg 75%
    02:00 +27°C° 0 mm 1 mps 720 mmHg 80%
    03:00 +27°C° 1.1 mm 1 mps 720 mmHg 81%
    04:00 +27°C° 1.1 mm 1 mps 720 mmHg 82%
    05:00 +27°C° 1.1 mm 1 mps 720 mmHg 84%
    06:00 +27°C° 0.1 mm 2 mps 720 mmHg 83%
    07:00 +28°C° 0.1 mm 2 mps 720 mmHg 82%
    08:00 +30°C° 0 mm 2 mps 720 mmHg 78%
    09:00 +31°C° 0.9 mm 3 mps 721 mmHg 71%
    10:00 +34°C° 0.9 mm 4 mps 721 mmHg 65%
    11:00 +35°C° 0.9 mm 4 mps 721 mmHg 58%
    12:00 +36°C° 0.4 mm 4 mps 720 mmHg 52%
    13:00 +38°C° 0.4 mm 4 mps 720 mmHg 47%
    14:00 +39°C° 0.4 mm 3 mps 720 mmHg 41%
    15:00 +38°C° 0.5 mm 4 mps 719 mmHg 47%
    16:00 +36°C° 0.5 mm 5 mps 719 mmHg 52%
    17:00 +35°C° 0.5 mm 5 mps 719 mmHg 58%
    18:00 +33°C° 1 mm 4 mps 718 mmHg 66%
    19:00 +30°C° 1 mm 3 mps 718 mmHg 74%
    20:00 +28°C° 1 mm 2 mps 718 mmHg 82%
    21:00 +28°C° 0 mm 1 mps 719 mmHg 84%
    22:00 +27°C° 0 mm 1 mps 720 mmHg 85%
    23:00 +27°C° 0 mm 1 mps 720 mmHg 87%

    Tomorrow, 21 January, Tuesday

    Time Temperature Precipitation Wind Pressure Humidity
    00:00 +26°C° 1.4 mm 2 mps 720 mmHg 88%
    01:00 +26°C° 1.4 mm 2 mps 720 mmHg 89%
    02:00 +25°C° 1.4 mm 3 mps 720 mmHg 90%
    03:00 +25°C° 0.4 mm 3 mps 720 mmHg 90%
    04:00 +25°C° 0.4 mm 3 mps 720 mmHg 90%
    05:00 +24°C° 0.4 mm 3 mps 720 mmHg 89%
    06:00 +25°C° 0 mm 2 mps 721 mmHg 86%
    07:00 +26°C° 0 mm 2 mps 721 mmHg 82%
    08:00 +27°C° 0 mm 2 mps 721 mmHg 78%
    09:00 +29°C° 0 mm 3 mps 721 mmHg 70%
    10:00 +30°C° 0 mm 4 mps 721 mmHg 63%
    11:00 +33°C° 0 mm 5 mps 721 mmHg 55%
    12:00 +34°C° 0 mm 5 mps 721 mmHg 52%
    13:00 +35°C° 0 mm 5 mps 720 mmHg 49%
    14:00 +36°C° 0 mm 6 mps 720 mmHg 46%
    15:00 +35°C° 0 mm 6 mps 720 mmHg 46%
    16:00 +35°C° 0 mm 6 mps 719 mmHg 47%
    17:00 +35°C° 0 mm 6 mps 719 mmHg 48%
    18:00 +33°C° 0.2 mm 5 mps 720 mmHg 52%
    19:00 +30°C° 0.2 mm 4 mps 720 mmHg 57%
    20:00 +28°C° 0.2 mm 3 mps 721 mmHg 62%
    21:00 +27°C° 0 mm 2 mps 721 mmHg 66%
    22:00 +26°C° 0 mm 1 mps 722 mmHg 71%
    23:00 +25°C° 0 mm 1 mps 722 mmHg 76%

    Day after tomorrow, 22 January, Wednesday

    Time Temperature Precipitation Wind Pressure Humidity
    00:00 +24°C° 0 mm 1 mps 722 mmHg 78%
    01:00 +24°C° 0 mm 1 mps 722 mmHg 80%
    02:00 +23°C° 0 mm 1 mps 722 mmHg 83%
    03:00 +23°C° 0 mm 1 mps 722 mmHg 85%
    04:00 +22°C° 0 mm 1 mps 722 mmHg 87%
    05:00 +20°C° 0 mm 0 mps 722 mmHg 90%
    06:00 +23°C° 0 mm 1 mps 722 mmHg 82%
    07:00 +25°C° 0 mm 1 mps 723 mmHg 74%
    08:00 +27°C° 0 mm 1 mps 723 mmHg 67%
    09:00 +28°C° 0 mm 2 mps 723 mmHg 59%
    10:00 +30°C° 0 mm 3 mps 724 mmHg 51%
    11:00 +33°C° 0 mm 3 mps 724 mmHg 44%
    12:00 +34°C° 0 mm 3 mps 723 mmHg 40%
    13:00 +35°C° 0 mm 3 mps 723 mmHg 36%
    14:00 +36°C° 0 mm 3 mps 722 mmHg 33%
    15:00 +36°C° 0 mm 4 mps 722 mmHg 32%
    16:00 +36°C° 0 mm 4 mps 722 mmHg 31%
    17:00 +36°C° 0 mm 4 mps 721 mmHg 31%
    18:00 +34°C° 0 mm 4 mps 722 mmHg 34%
    19:00 +31°C° 0 mm 3 mps 722 mmHg 37%
    20:00 +29°C° 0 mm 3 mps 722 mmHg 41%
    21:00 +28°C° 0 mm 3 mps 722 mmHg 43%
    22:00 +27°C° 0 mm 2 mps 723 mmHg 46%
    23:00 +26°C° 0 mm 2 mps 723 mmHg 48%

    23 January, Thursday

    Time Temperature Precipitation Wind Pressure Humidity
    00:00 +26°C° 0 mm 2 mps 723 mmHg 50%
    01:00 +26°C° 0 mm 2 mps 723 mmHg 51%
    02:00 +25°C° 0 mm 2 mps 723 mmHg 53%
    03:00 +25°C° 0 mm 2 mps 723 mmHg 55%
    04:00 +24°C° 0 mm 1 mps 723 mmHg 57%
    05:00 +24°C° 0 mm 1 mps 723 mmHg 59%
    06:00 +26°C° 0 mm 2 mps 723 mmHg 55%
    07:00 +28°C° 0 mm 2 mps 724 mmHg 50%
    08:00 +29°C° 0 mm 3 mps 724 mmHg 46%
    09:00 +32°C° 0 mm 4 mps 724 mmHg 41%
    10:00 +34°C° 0 mm 4 mps 724 mmHg 36%
    11:00 +36°C° 0 mm 5 mps 724 mmHg 31%
    12:00 +37°C° 0 mm 5 mps 723 mmHg 29%
    13:00 +38°C° 0 mm 6 mps 723 mmHg 27%
    14:00 +39°C° 0 mm 6 mps 722 mmHg 25%
    15:00 +39°C° 0 mm 6 mps 722 mmHg 26%
    16:00 +38°C° 0 mm 6 mps 721 mmHg 27%
    17:00 +38°C° 0 mm 6 mps 721 mmHg 28%
    18:00 +35°C° 0 mm 6 mps 721 mmHg 33%
    19:00 +32°C° 0 mm 5 mps 721 mmHg 38%
    20:00 +29°C° 0 mm 5 mps 721 mmHg 43%
    21:00 +28°C° 0 mm 4 mps 722 mmHg 45%
    22:00 +27°C° 0 mm 4 mps 722 mmHg 47%
    23:00 +26°C° 0 mm 3 mps 723 mmHg 50%

    24 January, Friday

    Time Temperature Precipitation Wind Pressure Humidity
    00:00 +26°C° 0 mm 3 mps 722 mmHg 50%
    01:00 +25°C° 0 mm 3 mps 722 mmHg 51%
    02:00 +25°C° 0 mm 3 mps 722 mmHg 51%
    03:00 +25°C° 0 mm 3 mps 722 mmHg 51%
    04:00 +24°C° 0 mm 3 mps 722 mmHg 51%
    05:00 +24°C° 0 mm 3 mps 722 mmHg 51%
    06:00 +26°C° 0 mm 3 mps 722 mmHg 47%
    07:00 +27°C° 0 mm 4 mps 723 mmHg 42%
    08:00 +29°C° 0 mm 4 mps 723 mmHg 38%
    09:00 +32°C° 0 mm 4 mps 723 mmHg 33%
    10:00 +34°C° 0 mm 4 mps 723 mmHg 27%
    11:00 +36°C° 0 mm 4 mps 723 mmHg 22%
    12:00 +37°C° 0 mm 4 mps 722 mmHg 20%
    13:00 +38°C° 0 mm 4 mps 722 mmHg 18%
    14:00 +41°C° 0 mm 4 mps 721 mmHg 16%
    15:00 +40°C° 0 mm 4 mps 721 mmHg 17%
    16:00 +40°C° 0 mm 4 mps 720 mmHg 18%
    17:00 +40°C° 0 mm 5 mps 720 mmHg 19%
    18:00 +36°C° 0 mm 5 mps 720 mmHg 25%
    19:00 +34°C° 0 mm 4 mps 720 mmHg 31%
    20:00 +30°C° 0 mm 4 mps 720 mmHg 36%
    21:00 +29°C° 0 mm 4 mps 720 mmHg 40%
    22:00 +28°C° 0 mm 3 mps 721 mmHg 43%
    23:00 +27°C° 0 mm 2 mps 721 mmHg 46%

    25 January, Saturday

    Time Temperature Precipitation Wind Pressure Humidity
    00:00 +27°C° 0 mm 2 mps 721 mmHg 45%
    01:00 +27°C° 0 mm 2 mps 721 mmHg 43%
    02:00 +27°C° 0 mm 2 mps 721 mmHg 42%
    03:00 +26°C° 0 mm 2 mps 721 mmHg 41%
    04:00 +26°C° 0 mm 2 mps 721 mmHg 41%
    05:00 +26°C° 0 mm 3 mps 721 mmHg 40%
    06:00 +28°C° 0 mm 3 mps 721 mmHg 36%
    07:00 +30°C° 0 mm 4 mps 722 mmHg 33%
    08:00 +33°C° 0 mm 4 mps 722 mmHg 29%
    09:00 +35°C° 0 mm 5 mps 722 mmHg 26%
    10:00 +37°C° 0 mm 5 mps 723 mmHg 23%
    11:00 +40°C° 0 mm 5 mps 723 mmHg 21%
    12:00 +41°C° 0 mm 4 mps 722 mmHg 19%
    13:00 +42°C° 0 mm 4 mps 722 mmHg 17%
    14:00 +43°C° 0 mm 3 mps 721 mmHg 15%
    15:00 +42°C° 0 mm 3 mps 721 mmHg 16%
    16:00 +40°C° 0 mm 2 mps 720 mmHg 16%
    17:00 +40°C° 0 mm 1 mps 720 mmHg 17%
    18:00 +36°C° 0 mm 1 mps 720 mmHg 20%
    19:00 +34°C° 0 mm 1 mps 720 mmHg 23%
    20:00 +32°C° 0 mm 1 mps 720 mmHg 26%
    21:00 +31°C° 0 mm 1 mps 720 mmHg 28%
    22:00 +30°C° 0 mm 1 mps 721 mmHg 31%
    23:00 +29°C° 0 mm 1 mps 721 mmHg 33%
    Show more